Location: Unspecified
(47.9110°N, 14.3980°E)
Time: 21:24:08
(UTC+00:00)

PSLV R/B - Pass Details

Date: 06 August 2020
Orbit: 598 x 701 km, 97.9° (Epoch: 22 September)

Event Time Altitude Azimuth Distance (km) Brightness Sun altitude
Rises 23:04:11 0° 18° (NNE) 3,021 8.2 -25.7°
Reaches altitude 10° 23:06:28 10° 24° (NNE) 2,118 7.1 -25.7°
Enters shadow 23:10:39 47° 86° (E) 904 4.3 -25.7°
